Latest Coastal Weather Observations for Kingfish B

IDV60701

Issued at 4:35 am EST Wednesday 24 September 2014 (issued every 10 minutes, with the page automatically refreshed every 10 minutes)

About coastal observations | Map of coastal stations | Coastal observations for VIC | Marine services | Other Formats
Station Details ID: 400139 Name: KINGFISH B (PLATFORM) Lat: -38.60 Lon: 148.19 Height: 31.4 m
Data from the previous 72 hours. | See also: Recent months for locations in Victoria
Date/Time
EST
Temp

°C
Wind Pressure Rain
since 9am
mm
Weather Cloud Vis
km
Sea
Height
m
Swell
Dir
 
Speed
knots
Gust
knots
hPa Trend Height
m
Period
s
Dir
24/03:20am 16.2 NW 1 2 1018.4 - - - - - - - - -
24/03:10am 15.8 NW 2 3 1018.5 - - - - - - - - -
24/03:00am 15.5 NW 5 7 1018.8 - - - - - - - - -
24/02:50am 15.2 NNW 5 7 1018.8 - - - - - - - - -
24/02:40am 15.2 NNW 4 6 1018.8 - - - - - - - - -
24/02:30am 15.2 N 4 6 1018.8 - - - - - - - - -
24/02:20am 15.3 NNE 4 5 1018.9 - - - - - - - - -
24/02:10am 15.2 NNE 5 5 1018.9 - - - - - - - - -
24/02:00am 15.2 NE 5 6 1019.0 - - - - - - - - -
24/01:50am 15.2 NE 6 6 1019.0 - - - - - - - - -
24/01:30am 15.2 NE 5 6 1019.3 - - - - - - - - -
24/01:20am 15.1 NE 5 5 1019.4 - - - - - - - - -
24/01:10am 15.1 NE 5 6 1019.5 - - - - - - - - -
24/01:00am 15.1 NE 5 5 1019.6 - - - - - - - - -
24/12:50am 15.1 NE 5 5 1019.8 - - - - - - - - -
24/12:40am 15.1 ENE 4 5 1019.9 - - - - - - - - -
24/12:30am 15.1 ENE 4 5 1020.0 - - - - - - - - -
24/12:20am 15.2 ENE 4 5 1020.1 - - - - - - - - -
24/12:10am 15.2 ENE 5 5 1020.2 - - - - - - - - -
24/12:00am 15.3 E 4 5 1020.4 - - - - - - - - -
 
Date/Time
EST
Temp

°C
Wind Pressure Rain
since 9am
mm
Weather Cloud Vis
km
Sea
Height
m
Swell
Dir
 
Speed
knots
Gust
knots
hPa Trend Height
m
Period
s
Dir
23/11:50pm 15.3 ENE 4 5 1020.5 - - - - - - - - -
23/11:40pm 15.3 ENE 4 5 1020.6 - - - - - - - - -
23/11:30pm 15.4 ENE 5 6 1020.6 - - - - - - - - -
23/11:20pm 15.5 ENE 6 7 1020.7 - - - - - - - - -
23/11:10pm 15.5 ENE 6 7 1020.8 - - - - - - - - -
23/11:00pm 15.6 ENE 7 7 1020.8 - - - - - - - - -
23/10:50pm 15.7 ENE 6 7 1021.0 - - - - - - - - -
23/10:40pm 15.7 ENE 6 6 1021.2 - - - - - - - - -
23/10:30pm 15.7 NE 7 9 1021.4 - - - - - - - - -
23/10:20pm 15.7 NE 9 10 1021.5 - - - - - - - - -
23/10:10pm 15.7 NE 9 10 1021.5 - - - - - - - - -
23/10:00pm 15.7 NE 10 11 1021.6 - - - - - - - - -
23/09:50pm 15.7 NE 10 11 1021.7 - - - - - - - - -
23/09:40pm 15.7 NE 10 11 1021.8 - - - - - - - - -
23/09:30pm 15.7 NE 10 11 1022.0 - - - - - - - - -
23/09:20pm 15.7 NE 9 10 1022.1 - - - - - - - - -
23/09:10pm 15.7 NE 9 11 1022.3 - - - - - - - - -
23/09:00pm 15.7 NE 9 10 1022.4 - - - - - - - - -
23/08:50pm 15.6 NE 10 11 1022.4 - - - - - - - - -
23/08:40pm 15.6 NE 10 10 1022.4 - - - - - - - - -
23/08:30pm 15.5 NE 9 11 1022.6 - - - - - - - - -
23/08:20pm 15.6 NE 8 9 1022.8 - - - - - - - - -
23/08:10pm 15.6 NE 8 9 1022.8 - - - - - - - - -
23/08:00pm 15.7 NE 7 8 1022.9 - - - - - - - - -
23/07:50pm 15.7 NE 7 8 1023.0 - - - - - - - - -
23/07:40pm 15.6 NNE 6 7 1023.3 - - - - - - - - -
23/07:30pm 15.6 NNE 6 7 1023.4 - - - - - - - - -
23/07:20pm 15.7 NNE 6 7 1023.4 - - - - - - - - -
23/07:10pm 15.7 NE 7 8 1023.4 - - - - - - - - -
23/07:00pm 15.8 NE 8 9 1023.4 - - - - - - - - -
23/06:50pm 15.8 NE 8 9 1023.4 - - - - - - - - -
23/06:40pm 15.8 NE 8 9 1023.5 - - - - - - - - -
23/06:30pm 15.8 NE 8 9 1023.4 - - - - - - - - -
23/06:20pm 15.7 NE 8 9 1023.4 - - - - - - - - -
23/06:10pm 15.7 NE 8 9 1023.4 - - - - - - - - -
23/06:00pm 15.8 NE 8 9 1023.4 - - - - - - - - -
23/05:50pm 15.7 NE 8 9 1023.4 - - - - - - - - -
23/05:40pm 15.7 NE 8 9 1023.4 - - - - - - - - -
23/05:20pm 15.8 NE 8 9 1023.3 - - - - - - - - -
23/05:10pm 15.9 NE 7 8 1023.4 - - - - - - - - -
23/05:00pm 16.0 NE 7 7 1023.4 - - - - - - - - -
23/04:50pm 16.1 NE 7 7 1023.4 - - - - - - - - -
23/04:40pm 16.1 NE 7 7 1023.5 - - - - - - - - -
23/04:30pm 16.0 NE 6 7 1023.6 - - - - - - - - -
23/04:20pm 16.1 NE 6 6 1023.6 - - - - - - - - -
23/04:10pm 16.1 NE 6 6 1023.5 - - - - - - - - -
23/04:00pm 16.1 NE 5 6 1023.5 - - - - - - - - -
23/03:50pm 16.0 NE 5 5 1023.6 - - - - - - - - -
23/03:40pm 15.9 NE 4 5 1023.6 - - - - - - - - -
23/03:30pm 15.9 NE 4 4 1023.7 - - - - - - - - -
23/03:20pm 15.9 NE 3 4 1023.7 - - - - - - - - -
23/03:10pm 16.0 NE 2 3 1023.8 - - - - - - - - -
23/03:00pm 16.0 NE 2 2 1023.9 - - - - - - - - -
23/02:40pm 15.8 NE 1 2 1024.0 - - - - - - - - -
23/02:30pm 15.9 NE 1 1 1024.0 - - - - - - - - -
23/02:20pm 15.9 NE 1 2 1024.0 - - - - - - - - -
23/02:10pm 15.9 NE 1 1 1024.0 - - - - - - - - -
23/02:00pm 15.8 NE 1 1 1024.1 - - - - - - - - -
23/01:50pm 15.9 NE 1 1 1024.2 - - - - - - - - -
23/01:40pm 15.9 NNE 1 2 1024.3 - - - - - - - - -
23/01:30pm 15.9 NNE 2 2 1024.4 - - - - - - - - -
23/01:20pm 15.8 NNE 2 2 1024.4 - - - - - - - - -
23/01:10pm 15.8 NNE 2 2 1024.6 - - - - - - - - -
23/01:00pm 15.7 NNE 2 3 1024.7 - - - - - - - - -
23/12:50pm 15.6 NNE 2 3 1024.8 - - - - - - - - -
23/12:40pm 15.6 NNE 2 3 1024.8 - - - - - - - - -
23/12:30pm 15.6 NNE 2 3 1024.8 - - - - - - - - -
23/12:20pm 15.6 NNE 2 3 1025.0 - - - - - - - - -
23/12:10pm 15.7 NNE 3 3 1025.1 - - - - - - - - -
23/12:00pm 15.7 NNE 3 3 1025.3 - - - - - - - - -
23/11:50am 15.8 NNE 3 3 1025.4 - - - - - - - - -
23/11:40am 15.9 NNE 2 4 1025.6 - - - - - - - - -
23/11:30am 15.9 NNE 2 3 1025.7 - - - - - - - - -
23/11:20am 15.8 NNE 2 4 1025.9 - - - - - - - - -
23/11:10am 15.8 NNE 2 4 1026.0 - - - - - - - - -
23/11:00am 15.6 N 1 3 1026.1 - - - - - - - - -
23/10:50am 15.7 NNW 1 4 1026.3 - - - - - - - - -
23/10:40am 15.9 NNW 1 4 1026.5 - - - - - - - - -
23/10:30am 15.8 NNW 2 3 1026.6 - - - - - - - - -
23/10:20am 16.2 N 0 3 1026.6 - - - - - - - - -
23/10:10am 16.2 NNE 0 1 1026.6 - - - - - - - - -
23/10:00am 16.1 NNE 1 3 1026.8 - - - - - - - - -
23/09:50am 16.3 NNE 1 2 1027.0 - - - - - - - - -
23/09:40am 16.4 NNW 1 2 1027.2 - - - - - - - - -
23/09:30am 16.2 NW 1 2 1027.3 - - - - - - - - -
23/09:20am 16.3 NW 2 3 1027.4 - - - - - - - - -
23/09:10am 16.2 NW 3 3 1027.5 - - - - - - - - -
23/09:00am 16.2 NW 3 3 1027.6 - - - - - - - - -
23/08:50am 16.4 NW 3 4 1027.5 - - - - - - - - -
23/08:40am 16.6 NW 3 4 1027.6 - - - - - - - - -
23/08:30am 16.7 NW 3 4 1027.7 - - - - - - - - -
23/08:20am 16.8 NNW 3 4 1027.7 - - - - - - - - -
23/08:10am 16.7 NNW 3 4 1027.7 - - - - - - - - -
23/08:00am 16.3 NW 3 4 1027.9 - - - - - - - - -
23/07:50am 16.2 NW 3 5 1028.0 - - - - - - - - -
23/07:40am 16.5 NW 3 5 1028.0 - - - - - - - - -
23/07:30am 16.5 NW 4 5 1027.9 - - - - - - - - -
23/07:20am 16.4 NW 3 5 1027.8 - - - - - - - - -
23/07:10am 16.4 NW 3 4 1027.8 - - - - - - - - -
23/07:00am 17.2 NW 2 3 1027.7 - - - - - - - - -
23/06:50am 16.9 WNW 2 3 1027.7 - - - - - - - - -
23/06:40am 16.2 NW 1 2 1027.6 - - - - - - - - -
23/06:30am 14.8 WNW 0 0 1027.5 - - - - - - - - -
23/06:20am 14.9 NE 0 0 1027.4 - - - - - - - - -
23/06:10am 15.0 NW 0 1 1027.3 - - - - - - - - -
23/06:00am 14.4 NW 0 1 1027.3 - - - - - - - - -
23/05:50am 14.0 NW 1 2 1027.3 - - - - - - - - -
23/05:30am 15.2 NW 1 3 1027.2 - - - - - - - - -
23/05:20am 15.2 NW 1 2 1027.2 - - - - - - - - -
23/05:10am 14.9 NW 2 3 1027.2 - - - - - - - - -
23/05:00am 14.9 NW 3 4 1027.2 - - - - - - - - -
23/04:50am 14.9 NW 3 3 1027.1 - - - - - - - - -
23/04:40am 15.1 NNW 2 4 1027.1 - - - - - - - - -
23/04:30am 15.8 NNW 2 4 1027.0 - - - - - - - - -
23/04:20am 16.4 NW 1 1 1026.9 - - - - - - - - -
23/04:10am 16.5 NW 1 2 1026.8 - - - - - - - - -
23/04:00am 15.8 WNW 2 2 1026.8 - - - - - - - - -
23/03:50am 14.8 W 1 1 1026.7 - - - - - - - - -
23/03:40am 14.7 WSW 1 1 1026.6 - - - - - - - - -
23/03:30am 14.8 WSW 1 1 1026.6 - - - - - - - - -
23/03:20am 14.8 WSW 1 2 1026.6 - - - - - - - - -
23/03:10am 14.9 WSW 1 1 1026.5 - - - - - - - - -
23/03:00am 14.8 W 1 1 1026.5 - - - - - - - - -
23/02:50am 14.6 WSW 1 1 1026.5 - - - - - - - - -
23/02:40am 14.4 WSW 0 1 1026.5 - - - - - - - - -
23/02:20am 14.0 WSW 1 1 1026.5 - - - - - - - - -
23/02:10am 13.9 SW 0 1 1026.4 - - - - - - - - -
23/02:00am 14.0 SW 0 1 1026.3 - - - - - - - - -
23/01:50am 14.3 W 0 1 1026.3 - - - - - - - - -
23/01:40am 14.2 WSW 1 2 1026.4 - - - - - - - - -
23/01:30am 14.2 WSW 2 2 1026.5 - - - - - - - - -
23/01:20am 14.5 WSW 1 2 1026.6 - - - - - - - - -
23/01:10am 14.8 W 1 2 1026.7 - - - - - - - - -
23/01:00am 15.1 W 1 1 1026.9 - - - - - - - - -
23/12:50am 15.3 W 1 1 1027.0 - - - - - - - - -
23/12:40am 15.5 WNW 0 1 1027.1 - - - - - - - - -
23/12:30am 15.2 WNW 0 0 1027.2 - - - - - - - - -
23/12:20am 15.0 NW 0 0 1027.2 - - - - - - - - -
23/12:10am 14.6 NW 0 0 1027.3 - - - - - - - - -
23/12:00am 14.5 NE 0 0 1027.3 - - - - - - - - -
 
Date/Time
EST
Temp

°C
Wind Pressure Rain
since 9am
mm
Weather Cloud Vis
km
Sea
Height
m
Swell
Dir
 
Speed
knots
Gust
knots
hPa Trend Height
m
Period
s
Dir
22/11:50pm 15.0 NE 0 0 1027.4 - - - - - - - - -
22/11:40pm 15.0 NE 0 0 1027.5 - - - - - - - - -
22/11:30pm 14.9 NE 0 0 1027.5 - - - - - - - - -
22/11:20pm 15.0 NE 0 0 1027.6 - - - - - - - - -
22/11:10pm 15.0 NE 0 0 1027.5 - - - - - - - - -
22/11:00pm 15.4 NE 0 0 1027.5 - - - - - - - - -
22/10:50pm 15.6 NE 0 0 1027.5 - - - - - - - - -
22/10:40pm 15.6 NW 0 0 1027.6 - - - - - - - - -
22/10:30pm 14.7 NW 0 1 1027.6 - - - - - - - - -
22/10:20pm 14.2 NNW 0 2 1027.7 - - - - - - - - -
22/10:10pm 14.3 N 0 1 1027.7 - - - - - - - - -
22/10:00pm 14.3 NNE 0 1 1027.7 - - - - - - - - -
22/09:50pm 14.3 NNE 1 1 1027.8 - - - - - - - - -
22/09:40pm 14.4 NNE 1 2 1027.8 - - - - - - - - -
22/09:20pm 14.4 NNE 1 2 1027.8 - - - - - - - - -
22/09:10pm 14.5 NNE 2 2 1027.9 - - - - - - - - -
22/08:40pm 14.5 NE 3 3 1027.9 - - - - - - - - -
22/08:30pm 14.4 NE 3 5 1027.9 - - - - - - - - -
22/08:20pm 14.4 NE 4 5 1027.9 - - - - - - - - -
22/08:10pm 14.3 NE 4 5 1027.9 - - - - - - - - -
22/08:00pm 14.4 NE 4 5 1027.9 - - - - - - - - -
22/07:50pm 14.4 NE 5 6 1027.9 - - - - - - - - -
22/07:40pm 14.4 NE 5 6 1027.9 - - - - - - - - -
22/07:30pm 14.4 NE 6 7 1027.9 - - - - - - - - -
22/07:20pm 14.4 NE 7 8 1027.9 - - - - - - - - -
22/07:10pm 14.4 NE 7 8 1027.9 - - - - - - - - -
22/07:00pm 14.4 NE 6 8 1027.9 - - - - - - - - -
22/06:40pm 14.3 NE 5 7 1027.9 - - - - - - - - -
22/06:30pm 14.4 NE 4 7 1027.9 - - - - - - - - -
22/06:20pm 14.3 NE 5 6 1027.9 - - - - - - - - -
22/06:10pm 14.3 NE 6 8 1027.8 - - - - - - - - -
22/06:00pm 14.3 NE 6 8 1027.7 - - - - - - - - -
22/05:50pm 14.3 NE 6 7 1027.7 - - - - - - - - -
22/05:40pm 14.3 NE 5 6 1027.7 - - - - - - - - -
22/05:30pm 14.3 NE 4 6 1027.6 - - - - - - - - -
22/05:20pm 14.3 NE 4 6 1027.5 - - - - - - - - -
22/05:10pm 14.4 NE 5 6 1027.5 - - - - - - - - -
22/05:00pm 14.4 NE 5 7 1027.4 - - - - - - - - -
22/04:50pm 14.5 NE 6 7 1027.3 - - - - - - - - -
22/04:30pm 14.5 NE 7 8 1027.2 - - - - - - - - -
22/04:20pm 14.4 NE 7 9 1027.2 - - - - - - - - -
22/04:10pm 14.5 NE 6 8 1027.3 - - - - - - - - -
22/04:00pm 14.5 NE 6 8 1027.2 - - - - - - - - -
22/03:50pm 14.5 NE 6 7 1027.3 - - - - - - - - -
22/03:40pm 14.5 NE 5 7 1027.2 - - - - - - - - -
22/03:30pm 14.5 NE 6 7 1027.2 - - - - - - - - -
22/03:20pm 14.5 NE 6 7 1027.2 - - - - - - - - -
22/03:10pm 14.6 NE 6 8 1027.3 - - - - - - - - -
22/03:00pm 14.7 NE 6 7 1027.3 - - - - - - - - -
22/02:50pm 14.7 NE 6 8 1027.3 - - - - - - - - -
22/02:40pm 14.6 NE 6 8 1027.3 - - - - - - - - -
22/02:30pm 14.5 NE 6 8 1027.3 - - - - - - - - -
22/02:20pm 14.4 NE 6 8 1027.4 - - - - - - - - -
22/02:10pm 14.1 NE 7 9 1027.3 - - - - - - - - -
22/02:00pm 14.1 NE 6 8 1027.3 - - - - - - - - -
22/01:50pm 14.1 NE 5 7 1027.3 - - - - - - - - -
22/01:40pm 14.1 NE 5 7 1027.4 - - - - - - - - -
22/01:30pm 14.1 NE 5 6 1027.5 - - - - - - - - -
22/01:20pm 14.1 NE 4 6 1027.5 - - - - - - - - -
22/01:10pm 14.1 NE 4 7 1027.7 - - - - - - - - -
22/01:00pm 14.1 NE 4 6 1027.8 - - - - - - - - -
22/12:50pm 14.2 NE 3 5 1027.9 - - - - - - - - -
22/12:40pm 14.1 NE 3 4 1028.0 - - - - - - - - -
22/12:30pm 14.2 NE 3 4 1028.0 - - - - - - - - -
22/12:20pm 14.3 NE 2 4 1028.0 - - - - - - - - -
22/12:10pm 14.4 NE 2 4 1028.1 - - - - - - - - -
22/12:00pm 14.3 NE 2 3 1028.2 - - - - - - - - -
22/11:50am 14.4 NE 2 4 1028.4 - - - - - - - - -
22/11:40am 14.5 NE 2 3 1028.5 - - - - - - - - -
22/11:30am 14.6 NE 2 3 1028.7 - - - - - - - - -
22/11:20am 14.7 NE 2 4 1028.8 - - - - - - - - -
22/11:00am 14.9 NNE 2 4 1028.9 - - - - - - - - -
22/10:50am 14.9 NNE 3 4 1029.1 - - - - - - - - -
22/10:40am 15.0 NNE 3 4 1029.2 - - - - - - - - -
22/10:30am 14.8 NNE 3 4 1029.3 - - - - - - - - -
22/10:20am 14.8 NNE 4 5 1029.4 - - - - - - - - -
22/10:10am 14.9 NNE 3 5 1029.5 - - - - - - - - -
22/10:00am 14.9 NNE 4 5 1029.6 - - - - - - - - -
22/09:50am 15.1 N 4 5 1029.8 - - - - - - - - -
22/09:40am 15.3 N 5 6 1029.9 - - - - - - - - -
22/09:30am 15.8 NNE 4 6 1030.0 - - - - - - - - -
22/09:20am 15.7 NNE 4 6 1030.0 - - - - - - - - -
22/09:10am 15.5 N 4 7 1030.0 - - - - - - - - -
22/09:00am 15.6 N 3 6 1030.1 - - - - - - - - -
22/08:50am 15.8 NNE 3 4 1030.3 - - - - - - - - -
22/08:40am 15.7 NNE 3 5 1030.3 - - - - - - - - -
22/08:30am 15.7 NNE 3 4 1030.3 - - - - - - - - -
22/08:20am 15.8 NNE 3 5 1030.3 - - - - - - - - -
22/08:10am 15.9 NNE 3 5 1030.4 - - - - - - - - -
22/08:00am 15.9 NNE 3 5 1030.4 - - - - - - - - -
22/07:50am 15.9 NNE 2 4 1030.5 - - - - - - - - -
22/07:40am 15.8 NNE 2 4 1030.6 - - - - - - - - -
22/07:30am 15.9 NNE 2 4 1030.6 - - - - - - - - -
22/07:20am 15.9 N 3 4 1030.6 - - - - - - - - -
22/07:10am 15.9 NNE 3 6 1030.5 - - - - - - - - -
22/07:00am 15.9 NNE 2 4 1030.5 - - - - - - - - -
22/06:50am 15.9 NNE 2 6 1030.4 - - - - - - - - -
22/06:40am 15.8 N 3 5 1030.3 - - - - - - - - -
22/06:30am 15.8 N 2 5 1030.1 - - - - - - - - -
22/06:20am 15.8 N 2 4 1030.1 - - - - - - - - -
22/06:10am 15.8 NNW 2 4 1030.0 - - - - - - - - -
22/06:00am 15.6 NNW 2 4 1030.0 - - - - - - - - -
22/05:50am 15.7 N 1 4 1030.0 - - - - - - - - -
22/05:40am 15.5 N 1 3 1029.8 - - - - - - - - -
22/05:20am 15.4 NNW 0 3 1029.7 - - - - - - - - -
22/05:10am 14.5 NW 0 1 1029.6 - - - - - - - - -
22/05:00am 14.8 NW 0 1 1029.6 - - - - - - - - -
22/04:50am 14.9 WNW 0 1 1029.5 - - - - - - - - -
22/04:40am 14.8 WNW 1 2 1029.4 - - - - - - - - -
22/04:30am 14.1 WNW 0 2 1029.4 - - - - - - - - -
22/04:20am 14.2 W 0 1 1029.4 - - - - - - - - -
22/04:10am 14.4 WNW 1 2 1029.3 - - - - - - - - -
22/04:00am 14.2 WNW 2 5 1029.3 - - - - - - - - -
22/03:50am 14.1 WNW 3 5 1029.2 - - - - - - - - -
22/03:40am 14.1 WNW 4 5 1029.3 - - - - - - - - -
22/03:30am 14.2 WNW 4 6 1029.3 - - - - - - - - -
22/03:20am 14.2 WNW 5 6 1029.3 - - - - - - - - -
22/03:10am 14.3 WNW 5 6 1029.3 - - - - - - - - -
22/03:00am 14.4 WNW 5 7 1029.3 - - - - - - - - -
22/02:50am 14.5 WNW 3 5 1029.3 - - - - - - - - -
22/02:40am 14.0 W 3 5 1029.3 - - - - - - - - -
22/02:30am 13.7 W 2 4 1029.3 - - - - - - - - -
22/02:10am 14.2 W 3 5 1029.3 - - - - - - - - -
22/02:00am 14.1 W 3 4 1029.4 - - - - - - - - -
22/01:50am 14.0 W 3 4 1029.4 - - - - - - - - -
22/01:40am 13.8 W 3 5 1029.4 - - - - - - - - -
22/01:30am 14.1 W 4 6 1029.5 - - - - - - - - -
22/01:20am 14.1 W 4 6 1029.5 - - - - - - - - -
22/01:10am 14.0 W 4 6 1029.5 - - - - - - - - -
22/12:50am 13.6 W 4 5 1029.5 - - - - - - - - -
22/12:30am 13.1 W 3 4 1029.6 - - - - - - - - -
22/12:20am 12.9 WSW 3 4 1029.6 - - - - - - - - -
22/12:10am 12.9 WSW 3 5 1029.6 - - - - - - - - -
22/12:00am 12.8 WSW 3 5 1029.6 - - - - - - - - -
 
Date/Time
EST
Temp

°C
Wind Pressure Rain
since 9am
mm
Weather Cloud Vis
km
Sea
Height
m
Swell
Dir
 
Speed
knots
Gust
knots
hPa Trend Height
m
Period
s
Dir
21/11:50pm 12.8 WSW 3 5 1029.7 - - - - - - - - -
21/11:40pm 12.8 SW 4 5 1029.6 - - - - - - - - -
21/11:30pm 12.8 SW 4 6 1029.6 - - - - - - - - -
21/11:20pm 12.8 SW 4 6 1029.5 - - - - - - - - -
21/11:10pm 12.8 SW 4 6 1029.5 - - - - - - - - -
21/11:00pm 12.8 SW 4 5 1029.5 - - - - - - - - -
21/10:50pm 12.9 SW 4 6 1029.6 - - - - - - - - -
21/10:40pm 12.9 SW 5 6 1029.6 - - - - - - - - -
21/10:30pm 13.0 SW 5 7 1029.7 - - - - - - - - -
21/10:20pm 13.1 SW 5 7 1029.8 - - - - - - - - -
21/10:10pm 13.1 SW 6 7 1029.7 - - - - - - - - -
21/10:00pm 13.4 SW 6 8 1029.8 - - - - - - - - -
21/09:50pm 14.4 SW 6 9 1029.8 - - - - - - - - -
21/09:40pm 13.4 SW 6 9 1029.7 - - - - - - - - -
21/09:30pm 13.2 SW 6 8 1029.7 - - - - - - - - -
21/09:20pm 13.5 SW 6 8 1029.8 - - - - - - - - -
21/09:10pm 13.5 SW 7 8 1029.8 - - - - - - - - -
21/09:00pm 13.3 SW 7 9 1029.9 - - - - - - - - -
21/08:50pm 13.3 SW 7 9 1029.9 - - - - - - - - -
21/08:40pm 13.3 SW 8 9 1030.0 - - - - - - - - -
21/08:20pm 13.4 SW 8 10 1030.1 - - - - - - - - -
21/08:10pm 13.4 SW 8 10 1030.0 - - - - - - - - -
21/08:00pm 13.4 SSW 9 11 1030.0 - - - - - - - - -
21/07:50pm 13.4 SW 9 11 1029.9 - - - - - - - - -
21/07:40pm 13.4 SSW 9 11 1030.1 - - - - - - - - -
21/07:30pm 13.3 SSW 10 12 1030.3 - - - - - - - - -
21/07:20pm 13.3 SSW 11 12 1030.2 - - - - - - - - -
21/07:10pm 13.2 SSW 10 12 1030.2 - - - - - - - - -
21/07:00pm 13.4 SSW 10 11 1030.2 - - - - - - - - -
21/06:50pm 13.4 SSW 11 13 1030.2 - - - - - - - - -
21/06:40pm 13.2 SSW 11 13 1030.3 - - - - - - - - -
21/06:30pm 13.3 SSW 11 13 1030.3 - - - - - - - - -
21/06:20pm 13.3 SSW 13 15 1030.3 - - - - - - - - -
21/06:10pm 13.5 SSW 14 15 1030.2 - - - - - - - - -
21/06:00pm 13.6 SSW 13 15 1030.1 - - - - - - - - -
21/05:50pm 13.6 SSW 12 14 1029.9 - - - - - - - - -
21/05:40pm 13.5 SSW 11 14 1029.9 - - - - - - - - -
21/05:30pm 13.5 SSW 12 14 1029.8 - - - - - - - - -
21/05:20pm 13.7 SSW 11 13 1029.6 - - - - - - - - -
21/05:10pm 13.7 SW 11 13 1029.3 - - - - - - - - -
21/05:00pm 13.8 SW 12 13 1029.2 - - - - - - - - -
21/04:50pm 13.8 SSW 12 14 1029.4 - - - - - - - - -
21/04:40pm 13.7 SSW 13 15 1029.5 - - - - - - - - -
21/04:30pm 14.0 SSW 12 14 1029.3 - - - - - - - - -
21/04:20pm 14.2 SSW 12 14 1029.2 - - - - - - - - -
21/04:10pm 14.2 SSW 11 13 1029.2 - - - - - - - - -
21/04:00pm 14.3 SSW 12 13 1029.2 - - - - - - - - -
21/03:50pm 14.3 SW 12 13 1029.1 - - - - - - - - -
21/03:40pm 14.4 SW 12 14 1029.2 - - - - - - - - -
21/03:30pm 14.4 SW 13 15 1029.2 - - - - - - - - -
21/03:20pm 14.3 SW 12 15 1029.2 - - - - - - - - -
21/03:10pm 14.3 SW 12 13 1029.1 - - - - - - - - -
21/03:00pm 14.3 SW 12 15 1029.0 - - - - - - - - -
21/02:50pm 14.3 SW 12 14 1028.9 - - - - - - - - -
21/02:40pm 14.5 SW 12 15 1028.8 - - - - - - - - -
21/02:20pm 14.4 SW 12 14 1028.7 - - - - - - - - -
21/02:10pm 14.5 SW 12 14 1028.8 - - - - - - - - -
21/02:00pm 14.6 SW 12 14 1028.8 - - - - - - - - -
21/01:50pm 14.7 SW 12 15 1028.8 - - - - - - - - -
21/01:40pm 14.7 SW 12 14 1028.8 - - - - - - - - -
21/01:30pm 14.8 SW 13 15 1028.8 - - - - - - - - -
21/01:20pm 14.7 SW 14 16 1028.9 - - - - - - - - -
21/01:10pm 14.7 SW 13 16 1028.8 - - - - - - - - -
21/01:00pm 14.7 WSW 13 16 1028.8 - - - - - - - - -
21/12:50pm 14.7 WSW 13 17 1028.9 - - - - - - - - -
21/12:40pm 14.7 WSW 14 16 1029.0 - - - - - - - - -
21/12:30pm 14.7 WSW 14 17 1029.0 - - - - - - - - -
21/12:20pm 14.7 WSW 13 16 1029.0 - - - - - - - - -
21/12:10pm 14.8 WSW 13 15 1029.0 - - - - - - - - -
21/12:00pm 14.8 WSW 13 15 1029.1 - - - - - - - - -
21/11:50am 14.8 WSW 13 15 1029.2 - - - - - - - - -
21/11:40am 15.0 WSW 13 16 1029.2 - - - - - - - - -
21/11:30am 15.1 WSW 14 16 1029.3 - - - - - - - - -
21/11:20am 15.2 WSW 15 17 1029.4 - - - - - - - - -
21/11:10am 15.5 WSW 13 16 1029.6 - - - - - - - - -
21/11:00am 15.6 WSW 14 17 1029.6 - - - - - - - - -
21/10:50am 15.8 WSW 14 17 1029.7 - - - - - - - - -
21/10:40am 15.8 WSW 14 16 1029.9 - - - - - - - - -
21/10:30am 15.9 WSW 15 17 1029.9 - - - - - - - - -
21/10:20am 15.6 SW 15 18 1029.9 - - - - - - - - -
21/10:10am 15.7 SW 14 17 1029.9 - - - - - - - - -
21/10:00am 15.7 SW 14 18 1029.9 - - - - - - - - -
21/09:50am 15.7 SW 14 17 1029.9 - - - - - - - - -
21/09:40am 15.8 SW 14 16 1029.9 - - - - - - - - -
21/09:30am 15.7 SW 14 16 1029.9 - - - - - - - - -
21/09:20am 15.4 SW 14 18 1029.9 - - - - - - - - -
21/09:10am 15.3 SW 15 17 1029.9 - - - - - - - - -
21/09:00am 15.3 SW 14 17 1030.0 - - - - - - - - -
21/08:50am 15.5 SW 15 18 1030.0 - - - - - - - - -
21/08:40am 15.5 SW 15 17 1030.0 - - - - - - - - -
21/08:30am 15.2 SW 14 16 1030.1 - - - - - - - - -
21/08:20am 14.9 SW 15 18 1030.0 - - - - - - - - -
21/08:10am 15.0 SW 15 19 1029.9 - - - - - - - - -
21/08:00am 14.9 SW 15 18 1029.9 - - - - - - - - -
21/07:50am 14.7 SW 14 18 1029.9 - - - - - - - - -
21/07:40am 14.5 SW 15 19 1029.7 - - - - - - - - -
21/07:30am 14.3 SW 15 19 1029.8 - - - - - - - - -
21/07:20am 14.2 SW 16 19 1029.7 - - - - - - - - -
21/07:10am 14.2 SW 16 20 1029.5 - - - - - - - - -
21/07:00am 14.4 SW 16 21 1029.4 - - - - - - - - -
21/06:50am 14.5 SW 17 20 1029.5 - - - - - - - - -
21/06:30am 13.6 SW 17 21 1029.2 - - - - - - - - -
21/06:20am 13.5 SW 17 22 1029.2 - - - - - - - - -
21/06:10am 13.4 SW 18 22 1029.2 - - - - - - - - -
21/06:00am 13.3 SW 18 22 1028.9 - - - - - - - - -
21/05:50am 13.2 SW 18 21 1028.9 - - - - - - - - -
21/05:40am 13.4 SW 17 21 1028.6 - - - - - - - - -
21/05:30am 13.2 SW 18 22 1028.5 - - - - - - - - -
21/05:20am 13.1 SW 17 21 1028.5 - - - - - - - - -
21/05:10am 12.9 SW 15 20 1028.2 - - - - - - - - -
21/05:00am 12.9 SW 16 23 1028.1 - - - - - - - - -
21/04:50am 12.9 SW 17 21 1028.1 - - - - - - - - -
21/04:40am 13.2 SW 16 20 1028.2 - - - - - - - - -

Other Formats:

Comma delimited format used in spreadsheet applications
http://www.bom.gov.au/fwo/IDV60701/IDV60701.55039.axf

JavaScript Object Notation format (JSON) in row-major order
http://www.bom.gov.au/fwo/IDV60701/IDV60701.55039.json